Weather Roundup
Issued by NWS Chicago, IL

Home | Current Version | Previous Version | Graphics & Text | Print | Product List | Glossary On
Versions: 1 2 3 4 5 6 7 8 9 10 11 12 13 14 15 16 17 18 19 20 21 22 23 24 25 26 27 28 29 30 31 32 33 34 35 36 37 38 39 40 41 42 43 44 45 46 47 48 49 50
000
NZUS59 KLOT 210608
HRRLOT

CHICAGO AREA WEATHER ROUNDUP
NATIONAL WEATHER SERVICE CHICAGO/ROMEOVILLE IL
100 AM CDT THU SEP 21 2017

NOTE: "FAIR" INDICATES FEW OR NO CLOUDS BELOW 12,000 FEET WITH NO
SIGNIFICANT WEATHER AND/OR OBSTRUCTIONS TO VISIBILITY.

* THESE STATIONS ARE NOT UNDER NWS QUALITY CONTROL. THEY ALSO MAY NOT
  REPORT WEATHER SUCH AS PRECIPITATION OR FOG.

ILZ005-006-012>014-019>023-210700-
NORTHEAST ILLINOIS

CITY           SKY/WX    TMP DP  RH WIND       PRES   REMARKS
OHARE          CLOUDY    81  67  62 SW9       29.94R HX  83
6HR MIN TEMP:  80; 6HR MAX TEMP:  87;

MIDWAY         CLOUDY    79  68  69 SW7       29.95R HX  81
6HR MIN TEMP:  79; 6HR MAX TEMP:  89;

AURORA         CLOUDY    74  69  85 CALM      29.97R
6HR MIN TEMP:  74; 6HR MAX TEMP:  83;

LANSING*       CLOUDY    72  69  92 S6        29.97R
JOLIET*        CLOUDY    76  70  81 SW3       29.96R
WAUKEGAN       CLOUDY    77  69  76 CALM      29.95R
6HR MIN TEMP:  75; 6HR MAX TEMP:  86;

DUPAGE AIRPORT MOCLDY    79  69  71 SW10      29.96R HX  81
6HR MIN TEMP:  75; 6HR MAX TEMP:  86;

WHEELING       CLOUDY    82  69  64 SW6       29.96R HX  85
6HR MIN TEMP:  81; 6HR MAX TEMP:  88;

MORRIS*        CLOUDY    72  68  89 NW6       29.95R
LEWIS AIRPORT* CLOUDY    74  68  82 S7        29.96R
NORTHERLY ISL    N/A     80  65  59 S7          N/A  HX  82
$$

WIZ051-052-058>065-066-070>072-210700-
SOUTHEAST WISCONSIN

CITY           SKY/WX    TMP DP  RH WIND       PRES   REMARKS
MILWAUKEE      CLOUDY    71  67  87 E6        29.95S
6HR MIN TEMP:  71; 6HR MAX TEMP:  81;

KENOSHA*       CLOUDY    75  67  76 NE6       29.96R
RACINE*        CLOUDY    71  67  87 NE6       29.98R
WAUKESHA       CLOUDY    68  64  88 CALM      29.97R
WEST BEND        N/A     68  68 100 CALM      29.95F
$$

INZ001>003-010>013-019-020-210700-
NORTHWEST INDIANA

CITY           SKY/WX    TMP DP  RH WIND       PRES   REMARKS
GARY*          CLOUDY    77  68  73 S3        29.97R
6HR MIN TEMP:  77; 6HR MAX TEMP:  86;

MICHIGAN CITY* NOT AVBL
RENSSELAER*    NOT AVBL
VALPARAISO     CLOUDY    74  69  85 S5        30.00R
$$

LMZ740>746-210700-
SOUTHERN LAKE MICHIGAN

STATION/POSITION TIME  SKY/WX   TEMP WIND        PRES    VSBY
                                AIR  DIR/SP/G
                 (UTC)          (F)  (DEG/KT/KT) (MB)    (MI)
HARRISON CRIB    0540            80  180/ 14/ 14   N/A
BURNHAM HARBOR   NOT AVBL
CALUMET HARBOR   0548            78  180/  7/  9 1013.7R
BURNS HARBOR     0540            77  180/  9/ 13 1014.9R
MICHIGAN CITY    0540            78  160/ 11/ 13   N/A
$$

ABBREVIATIONS USED IN REMARKS
   TC - TEMPERATURE IN CELSIUS
  WCI - WIND CHILL INDEX
   HX - HEAT INDEX
  VSB - VISIBILITY
$$




USA.gov is the U.S. government's official web portal to all federal, state and local government web resources and services.